SCP
0 0 0 0 0 0 0 0 0 0 0 0 0 0 0 0 0 0 0 0 0 0 0 0 0 0 0 0 0 0 0 0 0 0 0 0 0 0 0 0 0 0 0 0
0 0 0 0 0 0 0 0 0 0 0 0 0 0 0 0 0 0 0 0 0 0 0 0 0 0 0 0 0 0 0 0 0 0 0 0 0 0 0 0 0 0 0 0
0 0 0 0 0 0 0 0 0 0 0 0 0 0 0 0 0 0 0 0 0 0 0 0 0 0 0 0 0 0 0 0 0 0 0 0 0 0 0 0 0 0 0 0
0 0 0 0 0 0 0 0 0 0 0 0 0 0 0 0 0 0 0 0 0 0 0 0 0 0 0 0 0 0 0 0 0 0 0 0 0 0 0 0 0 0 0 0
0 0 0 0 0 0 0 0 0 0 0 0 0 0 0 0 0 0 0 0 0 0 0 0 0 0 0 0 0 0 0 0 0 0 0 0 0 0 0 0 0 0 0 0
0 0 0 0 0 0 0 0 0 0 0 0 0 0 0 0 0 0 0 0 0 0 0 0 0 0 0 0 0 0 0 0 0 0 0 0 0 0 0 0 0 0 0 0
0 0 0 0 0 0 0 0 0 0 0 0 0 0 0 0 0 0 0 0 0 0 0 0 0 0 0 0 0 0 0 0 0 0 0 0 0 0 0 0 0 0 0 0
0 0 0 0 0 0 0 0 0 0 0 0 0 0 0 0 0 0 0 0 0 0 0 0 0 0 0 0 0 0 0 0 0 0 0 0 0 0 0 0 0 0 0 0
0 0 0 0 0 0 0 0 0 0 0 0 0 0 0 0 0 0 0 0 0 0 0 0 0 0 0 0 0 0 0 0 0 0 0 0 0 0 0 0 0 0 0 0
0 0 0 0 0 0 0 0 0 0 0 0 0 0 0 0 0 0 0 0 0 0 0 0 0 0 0 0 0 0 0 0 0 0 0 0 0 0 0 0 0 0 0 0
0 0 0 0 0 0 0 0 0 0 0 0 0 0 0 0 0 0 0 0 0 0 0 0 0 0 0 0 0 0 0 0 0 0 0 0 0 0 0 0 0 0 0 0
0 0 0 0 0 0 0 0 0 0 0 0 0 0 0 0 0 0 0 0 0 0 0 0 0 0 0 0 0 0 0 0 0 0 0 0 0 0 0 0 0 0 0 0
0 0 0 0 0 0 0 0 0 0 0 0 0 0 0 0 0 0 0 0 0 0 0 0 0 0 0 0 0 0 0 0 0 0 0 0 0 -0 0 0 0 0 0 0
0 0 0 0 0 0 0 0 0 0 0 0 0 0 0 0 0 0 0 0 0 0 0 0 0 0 0 0 0 0 0 0 0 0 0 0 0 -0 0 0 0 0 0 0
0 0 0 0 0 0 0 0 0 0 0 0 0 0 0 0 0 0 0 0 0 0 0 0 0 0 0 0 0 0 0 0 0 0 0 0 0 0 0 0 0 0 0 0
0 0 0 0 0 0 0 0 0 0 0 0 0 0 0 0 0 0 0 0 0 0 0 0 0 0 0 0 0 0 0 0 0 0 0 0 0 0 0 0 0 0 0 0
0 0 0 0 0 0 0 0 0 0 0 0 0 0 0 0 0 0 0 0 0 0 0 0 0 0 0 0 0 0 0 0 0 0 0 0 0 0 0 0 0 0 0 0
0 0 0 0 0 0 0 0 0 0 0 0 0 0 0 0 0 0 0 0 0 0 0 0 0 0 0 0 0 0 0 0 0 0 0 0 0 0 0 0 0 0 0 0
0 0 0 0 0 0 0 0 0 0 0 0 0 0 0 0 0 0 0 0 -0 -0 0 0 0 0 0 0 0 0 0 0 0 0 0 0 0 0 0 0 0 0 0 0
0 0 0 0 0 0 0 0 0 0 0 0 0 0 0 0 0 0 0 0 -0 -0 0 0 0 0 0 0 0 0 0 0 0 0 0 0 0 0 0 0 0 0 0 0
0 0 0 0 0 0 0 0 0 0 0 0 0 0 0 0 0 0 0 0 0 0 0 0 0 0 0 0 0 0 0 0 0 0 0 0 0 0 0 0 0 0 0 0
0 0 0 0 0 0 0 0 0 0 0 0 0 0 0 0 0 0 0 0 0 0 0 0 0 0 0 0 0 -0 -0 -0 -0 -0 0 0 0 0 0 0 0 0 0 0
0 0 0 0 0 0 0 0 0 0 0 0 0 0 0 0 0 0 0 0 0 0 0 0 0 0 0 0 0 -0 -0 -0 -0 -0 0 0 0 0 0 0 0 0 0 0
0 0 0 0 0 0 0 0 0 0 0 0 0 0 0 0 0 0 0 0 0 0 0 0 0 0 0 0 0 -0 -0 -0 -0 -0 -0 -0 -0 0 0 0 0 0 0 0
0 0 0 0 0 0 0 0 0 0 0 0 0 0 0 0 0 0 0 0 0 0 0 0 0 0 0 0 -0 -0 -0 -0 -0 -0 -0 -0 -0 -0 -0 -0 0 0 0 0
0 0 0 0 0 0 0 0 0 -0 -0 -0 -0 0 0 0 0 0 0 0 0 0 0 0 0 0 0 0 0 0 -0 -0 -0 -0 -0 -0 -0 -0 -0 -0 -0 0 0 0
0 0 0 0 0 0 0 0 0 -0 -0 -0 -0 0 0 0 0 0 0 0 0 0 0 0 0 0 0 0 0 0 -0 -0 -0 -0 -0 -0 -0 -0 -0 -0 -0 -0 -0 -0
Wind_Speed
3 2 3 4 5 6 7 7 7 8 7 11 8 8 8 6 6 5 6 6 5 5 5 4 4 3 3 3 3 3 4 5 5 6 6 6 7 7 7 7 7 6 6 6
2 2 2 3 5 6 6 5 7 6 9 9 5 3 4 6 6 7 7 7 6 5 5 4 4 3 3 3 3 2 3 4 5 5 6 6 6 6 7 7 7 7 7 7
2 4 2 5 6 6 6 7 7 8 9 4 3 5 7 8 8 8 8 7 6 6 5 5 4 3 3 3 2 2 3 4 4 5 5 6 6 6 7 7 7 7 7 7
1 2 3 7 3 5 5 6 8 8 7 5 6 5 5 6 8 8 8 7 6 5 4 4 3 2 2 1 1 2 2 3 4 4 5 5 6 6 6 5 5 6 7 7
3 0 6 7 2 4 2 5 5 7 8 3 1 2 5 7 8 9 8 7 6 5 4 3 3 2 1 1 1 1 2 3 3 3 4 5 5 5 5 4 5 5 5 7
4 1 4 6 2 1 2 5 5 4 5 3 5 1 6 5 7 8 7 5 5 4 3 3 3 3 2 2 1 2 3 3 3 2 3 3 4 4 3 3 4 4 5 6
4 2 8 8 3 2 1 6 4 3 4 8 8 8 4 2 4 6 6 6 5 4 4 4 3 4 3 3 4 4 2 2 2 2 2 2 2 2 3 3 4 5 5 5
5 2 7 3 4 5 7 4 2 2 4 7 9 5 3 3 4 5 5 5 5 5 5 4 4 5 4 5 5 3 2 2 2 2 2 1 1 2 2 3 4 4 4 5
8 8 5 2 5 4 2 3 3 3 3 5 6 6 5 5 5 5 6 6 5 6 5 4 5 6 6 6 4 3 2 2 2 2 1 1 1 1 2 2 2 3 3 3
3 5 3 3 3 5 4 5 5 4 3 4 6 6 5 5 5 5 6 6 5 5 6 6 6 7 8 5 4 4 4 3 2 2 2 1 1 1 1 1 1 2 2 2
3 4 5 4 6 8 7 5 4 4 2 3 4 5 5 5 6 6 6 5 5 6 7 8 6 7 7 6 6 5 5 4 3 3 3 2 2 2 2 2 3 2 2 1
4 1 2 5 7 10 8 7 6 4 4 3 2 4 4 5 5 5 5 5 5 7 8 8 7 7 7 7 7 7 5 5 4 3 3 3 2 3 4 5 5 5 5 4
3 3 3 4 6 8 6 7 6 4 4 4 4 3 3 4 4 4 5 6 7 8 8 8 7 8 8 7 8 8 7 6 4 4 4 4 3 3 3 4 4 6 6 6
2 1 2 4 5 8 7 7 6 7 7 6 5 4 3 3 3 3 6 7 7 7 7 7 7 9 8 7 8 9 8 8 7 5 5 5 4 4 3 3 3 3 4 6
4 4 3 2 4 7 8 8 10 12 11 10 8 7 6 5 5 6 6 5 4 5 7 6 7 10 7 7 9 9 8 6 6 5 5 5 4 4 4 4 4 4 3 3
3 5 5 6 7 8 9 11 11 10 10 10 10 10 8 6 6 6 6 4 3 6 7 7 9 10 6 7 8 8 8 12 10 6 5 5 5 5 5 5 5 4 5 4
5 4 4 5 6 7 8 7 7 7 8 10 10 10 9 8 8 9 8 6 5 6 5 5 8 8 5 7 8 7 7 8 12 7 6 6 6 6 6 6 6 6 6 6
6 5 5 4 4 4 5 6 7 8 8 8 8 9 10 11 11 11 10 9 6 6 6 7 8 7 6 6 7 7 6 7 7 8 7 7 7 7 6 6 7 7 6 5
7 6 5 5 4 4 4 5 6 6 7 8 9 9 8 9 9 10 10 9 9 10 11 11 13 9 7 7 7 5 6 7 7 8 8 9 8 7 7 7 7 7 7 5
6 5 5 5 4 4 4 4 5 5 6 7 8 8 10 10 11 10 9 7 6 8 12 14 11 8 8 8 8 5 7 8 8 8 8 7 8 8 8 8 8 8 7 7
5 5 4 4 4 4 4 4 4 5 6 7 7 8 8 8 9 9 9 8 10 12 13 16 11 9 9 9 8 5 6 7 8 8 8 8 9 9 9 9 8 8 8 7
4 3 3 3 3 3 3 3 3 4 5 6 6 7 7 8 9 8 6 5 9 17 12 9 9 14 17 13 6 5 6 7 7 7 7 7 8 9 9 9 9 9 8 8
3 3 2 1 1 1 2 3 3 3 4 4 5 6 6 5 5 6 7 7 8 16 11 9 17 23 22 10 7 6 6 6 6 6 7 7 8 8 8 9 9 8 8 8
3 3 2 1 1 1 2 3 3 3 3 4 4 4 4 4 4 3 4 11 15 16 9 13 21 24 19 9 8 7 7 6 6 6 6 6 6 6 7 7 7 7 8 9
3 3 2 2 1 2 2 2 3 3 3 3 4 4 3 2 3 5 6 7 13 13 8 13 21 21 13 9 9 9 8 7 7 6 5 5 5 6 6 6 7 7 7 7
3 3 3 3 3 3 2 2 2 2 2 3 4 4 4 3 4 5 5 6 8 11 8 7 9 11 9 9 9 9 9 9 9 7 7 6 6 5 5 6 7 6 6 7
3 2 2 2 3 3 3 3 3 3 3 3 4 5 5 4 4 5 6 5 6 6 6 6 6 7 7 8 8 8 8 8 8 8 7 6 6 6 6 7 5 5 5 5
Wind_Direction
225 229 185 213 204 177 186 194 205 240 246 264 260 238 233 225 224 235 253 262 267 268 274 283 288 294 301 313 324 332 344 347 341 340 347 352 356 357 359 3 3 359 6 6
355 350 212 251 242 207 216 214 230 259 272 258 263 234 225 220 215 228 242 251 260 265 268 271 272 278 290 302 314 329 340 337 337 346 353 355 354 356 2 5 4 9 13 10
315 321 24 285 246 200 217 216 199 224 246 259 247 232 226 218 215 223 233 241 247 253 254 258 258 252 262 277 303 334 334 334 339 346 351 350 353 1 4 3 8 11 10 10
70 32 258 247 254 194 219 250 220 233 250 236 234 248 244 214 209 223 229 232 238 241 247 249 240 232 245 272 309 327 331 330 335 345 347 349 357 360 358 0 7 8 8 8
101 35 292 300 264 177 193 287 231 227 252 249 190 7 297 226 206 214 218 218 223 224 222 226 227 214 190 243 305 319 317 318 327 340 346 351 356 353 354 3 9 9 9 13
117 141 248 256 289 169 108 297 274 216 238 174 127 89 273 250 205 212 214 212 216 211 203 217 219 179 178 222 254 271 280 294 312 327 340 345 344 344 349 1 4 5 15 15
146 217 265 252 257 121 104 258 273 214 205 169 189 208 234 257 205 204 206 209 203 194 205 219 196 172 195 223 242 248 260 290 312 321 320 325 341 349 354 6 13 14 13 8
144 182 263 253 156 182 222 251 272 241 201 198 225 244 246 243 222 207 205 207 194 195 218 219 188 181 208 232 238 231 232 267 295 311 322 348 357 353 3 12 18 11 8 4
183 207 242 273 223 264 270 262 266 253 237 211 228 239 232 230 226 217 210 208 198 199 219 222 200 192 212 233 216 201 213 246 270 293 315 335 343 342 355 10 15 3 5 0
242 269 274 292 304 312 284 257 271 270 259 203 220 237 230 227 224 221 217 210 201 198 217 230 215 208 219 222 195 191 212 235 247 261 279 294 291 279 288 317 337 346 350 341
247 295 327 351 2 337 323 314 313 313 288 236 228 243 229 227 226 222 220 212 198 204 219 232 222 218 220 209 189 199 215 225 231 235 244 256 256 244 240 239 214 215 239 251
209 242 261 294 332 339 340 347 345 347 354 348 254 253 244 236 232 224 224 215 212 219 227 235 226 226 222 202 190 196 213 221 219 218 223 227 248 280 252 241 250 234 222 215
242 284 256 282 329 341 341 347 354 7 357 346 336 304 274 259 250 237 233 223 223 227 231 233 228 232 227 201 192 199 211 216 211 210 212 215 217 234 275 289 263 252 244 235
333 16 66 14 346 344 355 359 17 27 17 6 351 344 332 310 297 269 251 243 236 233 235 233 232 240 231 198 196 207 213 218 212 211 211 212 213 215 220 242 276 284 264 245
31 52 71 24 13 15 16 23 33 25 13 8 4 359 348 333 310 288 279 275 256 244 243 236 237 249 235 199 203 210 210 214 213 210 208 210 211 212 215 224 235 251 269 271
81 63 58 52 39 28 29 31 31 17 9 5 4 357 345 328 313 313 317 313 281 259 254 244 245 251 234 206 209 214 218 221 208 206 207 207 207 210 217 221 229 235 241 239
120 87 57 50 40 33 31 26 22 10 7 6 358 351 353 356 355 347 338 327 292 276 280 271 266 269 245 217 213 218 217 220 215 209 210 210 209 212 215 215 221 230 238 227
110 112 109 98 75 51 32 24 20 16 9 357 356 4 10 9 358 345 337 336 335 326 323 311 302 298 273 240 225 223 219 217 209 210 213 214 214 214 212 215 222 229 240 236
104 102 93 83 75 66 43 23 12 8 5 5 8 9 5 0 351 345 346 356 360 346 333 323 317 309 290 268 248 230 224 221 218 217 214 217 217 215 214 217 222 225 228 225
105 102 95 82 68 60 43 20 12 14 9 7 10 9 7 359 353 350 350 359 359 338 329 333 329 316 305 292 271 245 232 228 226 223 218 216 217 219 219 219 221 223 223 222
115 105 94 81 66 49 36 20 17 12 4 7 11 6 356 350 352 355 357 356 348 341 338 339 337 329 322 316 293 262 244 238 233 229 224 222 222 222 221 222 222 222 222 221
127 115 102 87 67 35 10 10 11 6 3 2 2 359 356 353 350 350 350 338 330 340 344 338 336 339 339 330 312 290 266 253 245 239 234 230 226 225 224 222 223 223 223 221
147 142 131 114 88 360 348 357 356 352 351 347 346 346 342 333 333 342 339 334 333 344 348 339 345 348 348 341 330 318 301 281 266 254 246 239 235 233 231 227 225 223 220 220
164 167 170 164 124 54 341 321 326 321 317 313 315 317 320 324 323 315 303 326 341 347 346 344 352 356 355 349 340 334 325 313 298 281 268 256 247 242 239 237 233 229 225 222
178 183 185 182 201 232 250 284 310 314 319 313 309 307 300 281 283 302 312 320 335 346 341 345 353 355 355 346 345 340 334 330 327 318 302 287 269 255 247 242 239 238 233 229
186 198 210 213 218 227 232 241 261 280 292 302 303 298 299 296 293 298 306 314 322 335 337 333 337 345 345 343 342 340 338 335 334 331 324 316 306 292 277 264 253 246 242 237
205 211 222 249 247 224 218 223 237 258 259 261 277 286 293 297 299 302 306 309 313 318 318 322 327 331 333 336 337 338 338 338 337 336 334 330 324 314 303 289 277 266 257 248